sat.trackr.live / text

‹ back to catalog

STARLINK-2426

NORAD 47836 · 2021-018BB

PAYLOAD ACTIVE UNKNOWN

§ Identity

Operator
Country
US
Launch date
2021-03-11
Launch site
AFETR
Launch vehicle
Mass (kg)
RCS (m²)

Purposes: comms

External: N2YO · Heavens-Above · Gunter

§ Orbital elements

Epoch: 2026-05-24T17:08:52.202112Z

Period
94.01 min
Inclination
53.1602°
Eccentricity
0.0001513
Mean motion
15.31717238 rev/d
Perigee alt
469.7 km
Apogee alt
471.7 km
Semi-major
6,848.8 km
B*
1.1192e-4
RAAN
251.4107°
Arg perigee
93.9774°
Mean anomaly
266.1400°
Rev number
28,834

§ Raw data

STARLINK-24261 47836U 21018BB  26144.71449308  .00003111  00000+0  11192-3 0  99952 47836  53.1602 251.4107 0001513  93.9774 266.1400 15.31717238288348

JSON: /api/v1/satellites/47836 · /tle

For live sub-satellite position, see the globe view (requires WebGL).

§ Visibility from observer

Set your observer location to see the next 7 days of passes ≥ 10°. The values pass through the URL so the page stays shareable.

No JS? Fill the form by hand. The geolocation button needs JavaScript.